Lid_Strength_Index
-1 -1 -1 -1 -1 -1 0 4 10 5 3 11 11 11 9 7 8 6 8 8 9 11 11 11 12 12 10 9 10 12 11 13 16 14 12 11 12 13 14 19 19 18 19 18
-1 -1 -1 -1 -1 -1 3 7 10 5 5 13 13 10 9 8 8 8 8 9 9 9 10 12 11 10 9 9 10 11 11 15 17 16 15 12 14 13 12 12 15 17 21 17
-1 -1 -1 -1 -1 -1 3 8 12 10 10 10 11 10 10 10 7 8 7 9 9 10 11 9 11 11 9 8 10 7 9 13 16 19 15 14 15 13 13 13 18 17 17 15
-1 -1 -1 -1 -1 -1 3 7 9 9 13 11 10 9 10 11 11 7 7 11 10 10 12 11 11 11 11 10 9 10 12 16 14 13 13 12 13 13 13 15 14 17 14 12
-1 -1 -1 -1 -1 -1 4 9 9 8 9 10 10 9 11 11 10 9 10 10 9 8 11 11 12 11 12 12 11 12 12 17 15 16 12 12 14 13 13 13 13 13 12 11
-1 -0 -0 0 -1 -1 4 5 3 6 8 10 11 10 10 10 9 8 8 8 10 10 9 8 9 9 10 10 12 14 14 15 15 18 13 14 17 14 13 12 11 11 14 10
-0 -1 -1 -0 -1 -0 2 4 4 8 11 10 10 9 8 9 9 10 9 8 10 8 7 8 8 8 9 10 11 11 13 14 14 17 15 20 14 10 10 10 9 10 9 9
-0 -1 -0 -0 -1 -1 1 2 4 7 11 9 9 8 9 8 8 8 8 7 7 6 8 12 13 13 13 11 11 11 10 13 16 19 18 15 13 11 11 11 11 8 9 9
-0 -1 -1 -1 -1 -1 1 2 2 4 9 10 6 8 8 10 10 9 8 6 6 6 11 13 16 18 16 16 13 10 10 12 16 17 19 22 15 10 7 8 16 8 8 9
-1 -1 -1 -1 -1 -1 1 2 1 4 8 6 6 8 9 7 8 11 9 8 9 8 13 14 16 16 13 17 18 18 16 16 19 17 20 16 10 9 7 15 15 8 8 9
-1 -1 -1 -1 -1 -1 0 2 2 4 7 6 5 4 7 7 7 11 9 10 10 11 13 15 15 16 15 16 14 16 18 19 19 17 21 20 8 8 12 11 8 8 9 8
-0 -0 -0 -1 -1 -1 -0 3 2 1 7 7 3 3 3 3 5 8 9 10 10 11 14 15 14 15 15 15 17 12 18 16 17 15 14 8 7 8 7 7 8 9 8 7
-0 -0 -0 -1 -1 -1 -0 2 2 3 7 9 6 6 4 3 4 4 9 9 8 9 8 10 11 14 13 18 16 14 11 8 14 12 9 8 8 7 7 7 8 7 6 6
-0 -0 -0 -0 -0 -1 -0 2 3 4 6 10 9 4 5 3 3 4 5 7 7 7 7 10 13 14 11 14 12 13 11 9 11 11 9 7 7 8 8 8 7 7 6 7
-0 -0 0 -0 -0 -0 0 2 2 2 6 10 9 5 4 4 4 5 6 6 7 10 12 14 14 13 12 12 11 13 8 10 12 14 9 10 9 8 7 8 8 7 7 8
0 0 0 -0 -0 -0 1 5 2 1 2 8 11 6 6 5 5 6 6 6 8 10 12 13 11 9 11 14 15 9 7 6 7 8 6 7 7 6 6 7 8 8 9 9
0 0 0 0 0 1 5 7 4 2 3 8 11 11 7 6 7 8 8 8 10 10 11 11 12 12 9 12 13 9 7 6 6 6 6 8 7 8 6 8 9 8 9 9
0 0 0 0 0 1 4 3 2 2 5 7 12 12 11 7 11 11 9 11 10 10 11 10 11 10 9 13 9 8 7 7 7 7 6 7 8 8 8 8 8 9 10 11
0 0 0 1 3 5 5 4 2 2 6 11 13 14 14 8 10 9 10 9 13 9 12 10 9 11 13 9 9 8 7 8 8 7 7 8 9 9 9 9 9 10 11 12
1 2 7 9 5 2 3 4 8 9 8 8 12 10 13 10 11 11 12 12 13 15 11 9 11 11 8 7 7 7 7 7 7 9 9 10 11 10 10 11 11 12 12 13
4 7 9 7 4 4 8 10 11 11 12 10 11 10 11 8 12 13 10 13 11 14 11 12 12 13 10 7 7 7 7 7 8 8 8 8 9 11 11 11 12 12 13 14
4 7 5 6 7 9 12 15 13 13 13 12 12 11 10 10 7 11 11 12 13 14 9 14 15 11 9 8 9 9 9 10 10 10 11 11 11 11 11 11 13 13 13 16
5 8 10 10 12 17 18 20 16 15 12 11 10 11 9 8 8 11 12 15 15 10 16 14 12 9 9 9 9 10 10 10 10 11 11 12 12 11 12 13 13 14 16 17
10 12 17 15 18 13 12 13 12 11 10 10 9 11 10 10 12 12 17 13 12 18 19 14 12 10 9 9 9 10 11 12 12 12 12 13 14 15 17 18 18 18 19 21
12 12 17 17 13 12 12 11 10 8 7 8 10 10 10 13 14 12 13 15 19 15 16 14 11 10 10 10 10 12 13 14 14 15 16 17 17 17 19 19 19 18 21 22
11 12 14 12 11 11 10 9 9 8 10 8 9 12 15 15 13 15 16 15 17 15 14 11 10 10 10 11 11 12 13 15 16 17 17 18 19 19 19 21 21 22 22 23
12 13 11 11 11 11 10 9 9 8 10 13 12 16 13 12 15 14 13 14 10 9 11 11 10 10 12 12 13 13 13 15 16 17 17 19 18 18 18 20 21 20 21 22